[[{"header":{"parameterUnit":"m.s-1","parameterCategory":1,"la1":30.2991,"la2":30.254,"lo1":-89.0895,"lo2":-89.0444,"dy":0.0017,"dx":0.0017,"nx":28,"ny":28,"refTime":"2025-12-25T09:00:00:Z","depth":0,"parameterNumber":2,"parameterNumberName":"U-component_of_WINDS"},"data":[0,0,0,0,0,0,0,0,0,0,0,0,0,0,0,0,0,0,0,0,0,0,0,0,0,0,0,0,0,0,0,0,0,0,0,0,0,0,0,0,0,0,0,0,0,0,0,0,0,0,0,0,0,0,0,0,0,0,-0.2474,-0.2474,0,-0.2456,-0.2456,-0.2456,-0.2422,-0.2422,-0.2421,-0.242,-0.2403,-0.2403,-0.2403,0,0,0,0,0,0,0,0,0,0,0,0,0,-0.2477,-0.2478,-0.2474,-0.2474,-0.2473,-0.2456,-0.2456,-0.2456,-0.2422,-0.2422,-0.2421,-0.242,-0.2403,-0.2403,-0.2403,0,0,0,0,0,0,0,0,0,0,0,0,0,-0.247,-0.2478,-0.2474,-0.2455,-0.2453,-0.2457,-0.2456,-0.2456,-0.2423,-0.2422,-0.2421,-0.242,-0.2403,-0.2403,-0.2403,-0.2425,0,0,-0.2404,-0.2404,0,0,0,0,0,0,0,0,-0.247,-0.2469,-0.2458,-0.2456,-0.2454,-0.244,-0.2451,-0.2445,-0.2423,-0.2434,-0.242,-0.2419,-0.2416,-0.2415,-0.2414,-0.2424,-0.2423,-0.2404,-0.2404,-0.2404,-0.2404,0,0,0,0,0,0,0,-0.2471,-0.247,-0.2467,-0.2457,-0.2455,-0.2447,-0.2444,-0.245,-0.2431,-0.2433,-0.243,-0.2429,-0.2415,-0.2414,-0.2414,-0.2423,-0.2404,-0.2404,-0.2404,-0.2405,-0.2448,-0.2449,0,0,0,0,0,0,-0.2474,-0.2471,-0.2467,-0.2466,-0.246,-0.2447,-0.2445,-0.2446,-0.2431,-0.2428,-0.243,-0.2427,-0.2414,-0.2413,-0.2413,-0.2437,-0.2404,-0.2405,-0.2405,-0.2447,-0.2449,-0.245,0,0,0,0,0,0,-0.2474,-0.2474,-0.2468,-0.2468,-0.2466,-0.2448,-0.245,-0.2446,-0.2445,-0.2428,-0.2425,-0.2432,-0.2413,-0.2413,-0.2422,-0.2436,-0.2405,-0.2405,-0.2446,-0.2448,-0.2449,-0.2485,0,0,0,0,0,0,-0.2474,-0.2474,-0.2482,-0.2468,-0.2467,-0.2478,-0.245,-0.2446,-0.2445,-0.2442,-0.243,-0.2427,-0.2413,-0.2422,-0.2422,-0.2435,-0.2405,-0.2445,-0.2447,-0.2449,-0.2482,-0.2487,-0.2491,0,0,0,0,0,-0.2475,-0.2493,-0.2483,-0.2483,-0.2476,-0.2478,-0.2477,-0.2461,-0.2447,-0.2455,-0.2444,-0.2427,-0.2434,-0.2423,-0.2423,-0.2437,-0.2444,-0.2446,-0.2448,-0.248,-0.2486,-0.2491,0,0,0,0,0,0,-0.251,-0.2491,-0.248,-0.2494,-0.2488,-0.2473,-0.2482,-0.2468,-0.2466,-0.2463,-0.2442,-0.2439,-0.2451,-0.2445,-0.2433,-0.2456,-0.2436,-0.2439,-0.246,-0.2466,-0.247,-0.2472,-0.2405,0,0,0,0,0,-0.2519,-0.2522,-0.2506,-0.252,-0.2518,-0.2501,-0.2501,-0.2488,-0.2481,-0.2479,-0.2469,-0.2463,-0.2463,-0.2464,-0.2464,-0.2481,-0.2477,-0.249,-0.2495,-0.2499,-0.2501,-0.2509,-0.2515,-0.2457,-0.2457,-0.2457,0,0,-0.2539,-0.2529,-0.2532,-0.2527,-0.2521,-0.2525,-0.2499,-0.2504,-0.2507,-0.248,-0.2488,-0.248,-0.2472,-0.2485,-0.249,-0.248,-0.2516,-0.2502,-0.2505,-0.2505,-0.2512,-0.2518,-0.2522,-0.2459,-0.2459,-0.2458,0,0,-0.2576,-0.2569,-0.258,-0.2574,-0.2565,-0.2554,-0.2556,-0.2543,-0.2537,-0.2544,-0.2524,-0.2527,-0.2528,-0.2523,-0.2521,-0.2555,-0.254,-0.2556,-0.258,-0.2589,-0.2593,-0.2597,-0.2609,-0.2614,-0.2558,-0.2558,-0.2558,0,-0.2602,-0.2607,-0.2588,-0.2594,-0.2592,-0.2568,-0.2578,-0.2574,-0.2565,-0.2565,-0.2553,-0.2554,-0.2547,-0.2558,-0.2566,-0.2565,-0.2568,-0.2557,-0.2594,-0.2598,-0.2601,-0.2613,-0.2617,-0.256,-0.256,-0.256,-0.256,0,-0.2638,-0.2642,-0.2652,-0.2644,-0.2643,-0.2652,-0.2634,-0.2636,-0.2623,-0.2612,-0.262,-0.261,-0.2607,-0.2609,-0.2597,-0.2619,-0.2612,-0.2598,-0.2577,-0.2609,-0.2619,-0.2624,-0.2563,-0.2562,-0.2562,-0.2561,0,0,-0.2698,-0.2679,-0.2683,-0.2679,-0.2667,-0.2669,-0.2677,-0.2673,-0.2675,-0.267,-0.2675,-0.2677,-0.2663,-0.266,-0.2647,-0.2654,-0.2682,-0.2638,-0.2638,-0.2647,-0.2705,-0.2716,-0.2722,-0.2671,-0.2672,-0.2673,-0.2706,0,-0.2734,-0.2745,-0.2728,-0.2743,-0.2746,-0.2722,-0.2728,-0.2722,-0.2712,-0.2713,-0.2701,-0.2703,-0.2684,-0.2682,-0.2688,-0.2677,-0.2693,-0.2674,-0.2676,-0.2677,-0.2679,-0.2727,-0.274,-0.2771,-0.271,-0.271,-0.2711,0,-0.2776,-0.2773,-0.2788,-0.2774,-0.2775,-0.2781,-0.2777,-0.2778,-0.2769,-0.2761,-0.2758,-0.2742,-0.2748,-0.2728,-0.2736,-0.2723,-0.2723,-0.2717,-0.2718,-0.2718,-0.2696,-0.2729,-0.2781,-0.2786,-0.2717,-0.2717,-0.2716,0,-0.2819,-0.2818,-0.2827,-0.2824,-0.2808,-0.2813,-0.2806,-0.2797,-0.2796,-0.2792,-0.2791,-0.2787,-0.2786,-0.2783,-0.2767,-0.2754,-0.2777,-0.2755,-0.277,-0.2771,-0.2777,-0.2777,-0.283,-0.2776,-0.2776,-0.2776,-0.2776,0,-0.286,-0.287,-0.2845,-0.2851,-0.2862,-0.2842,-0.2853,-0.2844,-0.2836,-0.2839,-0.2818,-0.2822,-0.2799,-0.28,-0.2787,-0.2796,-0.2795,-0.2789,-0.2785,-0.2791,-0.2792,-0.2791,-0.2788,-0.2777,-0.2777,-0.2776,-0.2776,0,-0.2909,-0.2893,-0.2901,-0.2885,-0.2882,-0.289,-0.2877,-0.2881,-0.2869,-0.2874,-0.2874,-0.2855,-0.2856,-0.2839,-0.2835,-0.2827,-0.284,-0.2833,-0.2843,-0.2841,-0.2857,-0.2856,-0.2912,-0.2918,-0.286,-0.2861,-0.2861,0,-0.2937,-0.2944,-0.2929,-0.293,-0.2924,-0.2926,-0.2924,-0.2904,-0.2904,-0.2894,-0.29,-0.2898,-0.2896,-0.2897,-0.2883,-0.2881,-0.2873,-0.2893,-0.2872,-0.2878,-0.2873,-0.2873,-0.2874,-0.2897,-0.2898,-0.2898,-0.2899,0,-0.2988,-0.2979,-0.2978,-0.2974,-0.2973,-0.2969,-0.2964,-0.2965,-0.2943,-0.2944,-0.2944,-0.2942,-0.2938,-0.2937,-0.2931,-0.2924,-0.2908,-0.2905,-0.2909,-0.2915,-0.2921,-0.2918,-0.2855,-0.2904,-0.2904,-0.2903,-0.2903,-0.2903,-0.3027,-0.3032,-0.3022,-0.3022,-0.3015,-0.3011,-0.3014,-0.3002,-0.3002,-0.2997,-0.2985,-0.2987,-0.2977,-0.2968,-0.2963,-0.2964,-0.2954,-0.2959,-0.296,-0.2961,-0.2965,-0.292,-0.2962,-0.2962,-0.2962,-0.2962,-0.2962,0,-0.3077,-0.3069,-0.3069,-0.3061,-0.3061,-0.3045,-0.3038,-0.3039,-0.304,-0.3033,-0.3031,-0.303,-0.3028,-0.3014,-0.3011,-0.3014,-0.3007,-0.3014,-0.3014,-0.3012,-0.2974,-0.2971,-0.302,-0.302,-0.302,-0.302,-0.302,-0.302,-0.3103,-0.3111,-0.3101,-0.3106,-0.3097,-0.3099,-0.3096,-0.3092,-0.3085,-0.3086,-0.3084,-0.3075,-0.3064,-0.306,-0.3057,-0.3053,-0.3053,-0.3063,-0.3056,-0.3021,-0.3015,-0.301,-0.3007,-0.3063,-0.3063,-0.3095,-0.3095,-0.3095]},{"header":{"parameterUnit":"m.s-1","parameterCategory":1,"la1":30.2991,"la2":30.254,"lo1":-89.0895,"lo2":-89.0444,"dy":0.0017,"dx":0.0017,"nx":28,"ny":28,"refTime":"2025-12-25T09:00:00:Z","depth":0,"parameterNumber":3,"parameterNumberName":"V-component_of_WINDS"},"data":[0,0,0,0,0,0,0,0,0,0,0,0,0,0,0,0,0,0,0,0,0,0,0,0,0,0,0,0,0,0,0,0,0,0,0,0,0,0,0,0,0,0,0,0,0,0,0,0,0,0,0,0,0,0,0,0,0,0,-0.0843,-0.0844,0,-0.09,-0.0901,-0.0901,-0.0894,-0.0893,-0.0892,-0.0891,-0.0951,-0.0954,-0.0956,0,0,0,0,0,0,0,0,0,0,0,0,0,-0.0729,-0.0731,-0.0843,-0.0844,-0.0844,-0.09,-0.0901,-0.0902,-0.0894,-0.0893,-0.0892,-0.0891,-0.0951,-0.0954,-0.0957,0,0,0,0,0,0,0,0,0,0,0,0,0,-0.0781,-0.0732,-0.0843,-0.0847,-0.0848,-0.09,-0.0901,-0.0902,-0.0895,-0.0893,-0.0892,-0.089,-0.095,-0.0953,-0.0957,-0.1008,0,0,-0.0968,-0.097,0,0,0,0,0,0,0,0,-0.0778,-0.0786,-0.0846,-0.0847,-0.0848,-0.0889,-0.0882,-0.0937,-0.0895,-0.0877,-0.0891,-0.089,-0.0932,-0.0937,-0.0951,-0.1011,-0.1013,-0.0969,-0.0971,-0.0972,-0.0973,0,0,0,0,0,0,0,-0.0775,-0.0783,-0.0866,-0.0847,-0.0848,-0.0847,-0.0853,-0.0893,-0.0912,-0.0879,-0.0878,-0.0885,-0.0932,-0.0947,-0.0952,-0.1014,-0.0968,-0.0972,-0.0974,-0.0975,-0.1118,-0.112,0,0,0,0,0,0,-0.077,-0.078,-0.0864,-0.0867,-0.0809,-0.085,-0.0857,-0.0877,-0.0911,-0.0915,-0.0886,-0.0884,-0.0941,-0.0948,-0.0954,-0.1016,-0.0972,-0.0976,-0.0978,-0.1117,-0.1119,-0.112,0,0,0,0,0,0,-0.0767,-0.0777,-0.0862,-0.0824,-0.0834,-0.0854,-0.0877,-0.0879,-0.0894,-0.0917,-0.092,-0.0898,-0.0941,-0.0949,-0.0994,-0.1018,-0.0977,-0.0981,-0.1115,-0.1117,-0.112,-0.114,0,0,0,0,0,0,-0.0764,-0.0777,-0.0796,-0.0824,-0.0836,-0.0901,-0.0878,-0.0881,-0.09,-0.0899,-0.0929,-0.0933,-0.094,-0.0989,-0.0998,-0.1022,-0.0984,-0.1113,-0.1116,-0.1119,-0.1137,-0.1143,-0.1148,0,0,0,0,0,-0.076,-0.08,-0.0797,-0.0807,-0.0861,-0.0902,-0.0909,-0.0917,-0.0902,-0.0922,-0.0936,-0.0932,-0.1014,-0.0994,-0.1004,-0.103,-0.1112,-0.1115,-0.1119,-0.1135,-0.1142,-0.1147,0,0,0,0,0,0,-0.0775,-0.0804,-0.0801,-0.0851,-0.0874,-0.0901,-0.0926,-0.0923,-0.0952,-0.0949,-0.0957,-0.0964,-0.101,-0.1024,-0.1001,-0.1081,-0.1061,-0.1066,-0.107,-0.1076,-0.1081,-0.1077,-0.0987,0,0,0,0,0,-0.0783,-0.0814,-0.0838,-0.088,-0.0891,-0.0907,-0.0925,-0.0928,-0.0953,-0.0963,-0.0981,-0.1005,-0.1037,-0.1057,-0.1087,-0.1139,-0.1146,-0.1162,-0.1167,-0.1171,-0.1176,-0.1205,-0.1212,-0.1132,-0.1132,-0.1132,0,0,-0.0802,-0.0822,-0.0841,-0.0883,-0.0901,-0.0933,-0.0915,-0.0949,-0.0973,-0.0968,-0.1012,-0.1026,-0.1054,-0.1103,-0.1125,-0.1116,-0.12,-0.1175,-0.1178,-0.1182,-0.1209,-0.1217,-0.1223,-0.1134,-0.1134,-0.1134,0,0,-0.0853,-0.0871,-0.0908,-0.0926,-0.0954,-0.0964,-0.0972,-0.1,-0.1009,-0.1053,-0.1049,-0.1078,-0.1132,-0.1151,-0.1169,-0.1226,-0.1223,-0.1236,-0.1262,-0.129,-0.1297,-0.1302,-0.1323,-0.133,-0.124,-0.124,-0.1241,0,-0.0874,-0.0921,-0.0927,-0.0962,-0.0981,-0.0977,-0.1014,-0.1032,-0.1068,-0.1081,-0.107,-0.1137,-0.1156,-0.1209,-0.1223,-0.1237,-0.1247,-0.1233,-0.1295,-0.1301,-0.1306,-0.1326,-0.1334,-0.1242,-0.1242,-0.1242,-0.1241,0,-0.0945,-0.0978,-0.1004,-0.1039,-0.106,-0.1096,-0.1108,-0.1129,-0.113,-0.1141,-0.1186,-0.1208,-0.1242,-0.1255,-0.1257,-0.1309,-0.1302,-0.1293,-0.1273,-0.1315,-0.1334,-0.1342,-0.1244,-0.1243,-0.1243,-0.1243,0,0,-0.1008,-0.1044,-0.1054,-0.1069,-0.1099,-0.1125,-0.1161,-0.1193,-0.1212,-0.1236,-0.1267,-0.1312,-0.1303,-0.1323,-0.1327,-0.1351,-0.1396,-0.1339,-0.134,-0.1349,-0.1454,-0.1462,-0.147,-0.1393,-0.1394,-0.1396,-0.1452,0,-0.1062,-0.1124,-0.113,-0.1187,-0.1217,-0.1214,-0.1245,-0.1266,-0.1277,-0.1305,-0.1317,-0.1349,-0.1335,-0.1347,-0.1371,-0.1385,-0.1417,-0.1381,-0.1422,-0.1423,-0.1416,-0.148,-0.1488,-0.1541,-0.1459,-0.1461,-0.1462,0,-0.1134,-0.116,-0.1219,-0.1244,-0.1257,-0.1285,-0.1316,-0.1342,-0.1367,-0.1373,-0.1394,-0.1395,-0.1432,-0.141,-0.1461,-0.1437,-0.1454,-0.1463,-0.1465,-0.147,-0.1446,-0.1487,-0.1557,-0.1565,-0.1473,-0.1472,-0.1472,0,-0.1174,-0.1224,-0.1266,-0.1279,-0.131,-0.1329,-0.1343,-0.1366,-0.1385,-0.1412,-0.1425,-0.1455,-0.1473,-0.1497,-0.1506,-0.1489,-0.1557,-0.1535,-0.1563,-0.1563,-0.1579,-0.1578,-0.1653,-0.1588,-0.1588,-0.1588,-0.1588,0,-0.1234,-0.1271,-0.1285,-0.1311,-0.1351,-0.1358,-0.1398,-0.1411,-0.1431,-0.146,-0.1458,-0.1485,-0.1495,-0.1524,-0.1531,-0.1572,-0.158,-0.1586,-0.1588,-0.1587,-0.1586,-0.1599,-0.1596,-0.159,-0.159,-0.1589,-0.1589,0,-0.1287,-0.1297,-0.1343,-0.1368,-0.1375,-0.1404,-0.1425,-0.145,-0.146,-0.1496,-0.1505,-0.1521,-0.1555,-0.1566,-0.1606,-0.1611,-0.166,-0.1658,-0.1651,-0.1652,-0.1679,-0.1677,-0.1766,-0.1778,-0.1705,-0.1706,-0.1706,0,-0.1325,-0.1353,-0.138,-0.1399,-0.1413,-0.1443,-0.1463,-0.147,-0.149,-0.152,-0.1542,-0.1575,-0.1602,-0.1655,-0.1671,-0.1702,-0.1701,-0.173,-0.1706,-0.1704,-0.1703,-0.1701,-0.1704,-0.1735,-0.1736,-0.1737,-0.1737,0,-0.1392,-0.1396,-0.1423,-0.1453,-0.1476,-0.15,-0.1523,-0.1538,-0.1549,-0.1572,-0.1606,-0.1627,-0.1668,-0.1701,-0.1732,-0.1746,-0.1744,-0.1744,-0.1753,-0.1752,-0.1748,-0.1751,-0.1665,-0.1743,-0.1742,-0.1742,-0.1741,-0.1741,-0.1439,-0.1464,-0.1487,-0.1518,-0.1535,-0.1557,-0.1581,-0.1594,-0.1622,-0.1656,-0.1659,-0.1695,-0.1719,-0.1761,-0.1777,-0.1806,-0.1798,-0.1809,-0.1813,-0.1816,-0.1818,-0.1742,-0.1811,-0.1811,-0.1811,-0.1811,-0.1811,0,-0.1506,-0.1521,-0.1549,-0.1581,-0.1605,-0.16,-0.1625,-0.1646,-0.1678,-0.17,-0.1726,-0.1765,-0.1796,-0.1814,-0.1846,-0.1866,-0.1865,-0.1874,-0.1873,-0.1876,-0.1823,-0.1813,-0.1874,-0.1874,-0.1874,-0.1874,-0.1873,-0.1873,-0.1544,-0.1586,-0.1592,-0.1642,-0.1656,-0.1692,-0.1707,-0.1726,-0.1744,-0.1787,-0.1813,-0.1824,-0.1844,-0.1878,-0.1906,-0.1911,-0.1923,-0.1933,-0.1936,-0.1886,-0.188,-0.1874,-0.1865,-0.1935,-0.1935,-0.1987,-0.1988,-0.1988]}]]